DW1253 Weather Reports


time (UTC)temp
F
wind
direction
speed
knots
gust
knots
rain 1hr
in
rain 24hr
in
rain mn
in
humidity
%
barometer
mb
20260831040409 64 207 0.0 1.7 0.04 0.20 0.01 93 1019.5
20260831035834 64 207 0.9 1.7 0.03 0.19 0.19 93 1019.5
20260831035349 64 206 0.0 1.7 0.03 0.19 0.19 93 1019.6
20260831034844 64 206 0.9 1.7 0.04 0.19 0.19 93 1019.7
20260831034337 64 205 0.0 1.7 0.04 0.19 0.19 93 1019.7
20260831033852 64 205 0.0 1.7 0.04 0.19 0.19 93 1019.7
20260831033347 64 205 0.0 1.7 0.04 0.18 0.18 93 1019.6
20260831032904 64 205 0.0 2.6 0.05 0.18 0.18 93 1019.7
20260831032336 64 205 0.9 3.5 0.05 0.17 0.17 93 1019.9
20260831031850 64 237 0.9 3.5 0.06 0.17 0.17 93 1019.7
20260831031405 64 211 0.0 2.6 0.06 0.17 0.17 93 1019.9
20260831030840 64 211 0.9 2.6 0.06 0.16 0.16 93 1019.9
20260831030334 64 211 0.9 1.7 0.07 0.16 0.16 92 1019.8
20260831025902 64 211 0.9 2.6 0.09 0.16 0.16 92 1019.9
20260831025334 64 211 0.9 4.3 0.10 0.16 0.16 92 1019.8
20260831024834 64 213 1.7 4.3 0.10 0.15 0.15 92 1019.7
20260831024347 64 214 1.7 2.6 0.10 0.15 0.15 92 1019.7
20260831023900 64 205 0.9 2.6 0.10 0.15 0.15 92 1019.8
20260831023334 64 205 0.9 3.5 0.09 0.14 0.14 92 1019.8
20260831022847 64 236 1.7 3.5 0.08 0.13 0.13 92 1019.9
20260831022341 64 223 0.9 3.5 0.07 0.12 0.12 92 1020.1
20260831021853 65 223 0.9 3.5 0.06 0.11 0.11 92 1020.0
20260831021347 65 225 1.7 3.5 0.07 0.11 0.11 92 1020.1
20260831020842 65 217 1.7 4.3 0.06 0.10 0.10 92 1020.1
20260831020338 65 224 1.7 5.2 0.05 0.09 0.09 92 1020.1
20260831015847 65 236 1.7 5.2 0.03 0.07 0.07 92 1020.1
20260831015342 65 230 1.7 3.5 0.02 0.06 0.06 92 1020.1
20260831014857 65 228 0.9 3.5 0.01 0.05 0.05 92 1020.0
20260831014409 65 227 0.9 4.3 0.01 0.05 0.05 92 1020.1
20260831013902 65 236 1.7 4.3 0.01 0.05 0.05 92 1020.0
20260831013335 65 207 0.9 4.3 0.01 0.05 0.05 91 1020.1
20260831012850 65 211 1.7 4.3 0.01 0.05 0.05 91 1020.0
20260831012404 65 217 1.7 2.6 0.01 0.05 0.05 91 1019.9
20260831011838 65 239 1.7 3.5 0.01 0.05 0.05 91 1019.9
20260831011351 65 208 1.7 3.5 0.00 0.04 0.04 91 1019.9
20260831010847 65 215 0.9 2.6 0.01 0.04 0.04 90 1019.9
20260831010342 65 194 0.9 3.5 0.01 0.04 0.04 90 1019.7
20260831005848 65 192 0.9 3.5 0.01 0.04 0.04 91 1019.7
20260831005343 65 215 0.0 2.6 0.01 0.04 0.04 91 1019.6
20260831004836 65 215 0.9 2.6 0.01 0.04 0.04 90 1019.5
20260831004351 65 215 0.9 2.6 0.01 0.04 0.04 90 1019.6
20260831003844 65 215 0.9 2.6 0.01 0.04 0.04 90 1019.5
20260831003339 65 226 0.9 2.6 0.01 0.04 0.04 90 1019.4
20260831002837 65 226 0.9 2.6 0.01 0.04 0.04 90 1019.4
20260831002351 65 227 1.7 3.5 0.01 0.04 0.04 90 1019.3
20260831001847 65 244 0.9 3.5 0.01 0.04 0.04 90 1019.2
20260831001341 65 237 0.9 2.6 0.01 0.04 0.04 90 1019.1
20260831000856 65 248 0.9 3.5 0.01 0.03 0.03 89 1019.0
20260831000410 65 254 0.9 3.5 0.01 0.03 0.03 89 1019.0
20260830235835 65 161 0.9 1.7 0.01 0.03 0.03 89 1019.0
20260830235350 65 146 0.0 0.9 0.01 0.03 0.03 90 1019.0
20260830234845 65 146 0.0 0.9 0.01 0.03 0.03 90 1018.9
20260830234357 65 146 0.0 0.9 0.01 0.03 0.03 89 1019.0
20260830233852 65 146 0.0 0.9 0.02 0.03 0.03 89 1018.9
20260830233347 66 146 0.0 0.9 0.02 0.03 0.03 89 1018.8
20260830232840 66 146 0.0 0.9 0.02 0.03 0.03 89 1018.8
20260830232335 66 146 0.0 0.9 0.02 0.03 0.03 89 1018.8
20260830231909 66 146 0.0 0.9 0.02 0.03 0.03 89 1018.8
20260830231343 66 146 0.0 1.7 0.02 0.03 0.03 89 1018.8
20260830230836 66 146 0.0 1.7 0.01 0.02 0.02 89 1018.8
20260830230331 66 146 0.0 0.9 0.01 0.02 0.02 89 1018.8
20260830225836 66 146 0.0 1.7 0.01 0.02 0.02 89 1018.8
20260830225351 66 146 0.0 1.7 0.01 0.02 0.02 89 1018.9
20260830224844 66 146 0.0 0.9 0.01 0.02 0.02 89 1018.8
20260830224339 66 146 0.0 0.0 0.01 0.02 0.02 88 1018.9
20260830223835 66 146 0.0 0.9 0.00 0.01 0.01 88 1018.9
20260830223350 66 146 0.0 0.9 0.00 0.01 0.01 88 1019.0
20260830222843 66 146 0.0 0.9 0.00 0.01 0.01 88 1019.0
20260830222342 66 146 0.0 0.9 0.00 0.01 0.01 88 1019.1
20260830221836 66 146 0.0 0.0 0.00 0.01 0.01 88 1019.1
20260830221351 66 146 0.0 0.9 0.00 0.01 0.01 88 1019.0
20260830220906 66 146 0.0 1.7 0.00 0.01 0.01 88 1019.0
20260830220340 67 146 0.0 1.7 0.00 0.01 0.01 88 1019.0
20260830215847 67 146 0.0 0.0 0.00 0.01 0.01 88 1019.0
20260830215340 67 146 0.0 0.0 0.00 0.01 0.01 88 1019.0
20260830214835 67 146 0.0 1.7 0.00 0.01 0.01 88 1019.0
20260830214349 67 146 0.9 1.7 0.00 0.01 0.01 88 1019.0
20260830213844 67 146 0.9 2.6 0.00 0.01 0.01 88 1018.9
20260830213339 67 146 0.9 2.6 0.00 0.01 0.01 87 1018.9
20260830212834 67 146 0.0 1.7 0.00 0.01 0.01 86 1018.9
20260830212349 67 146 0.0 0.9 0.00 0.01 0.01 86 1018.9
20260830211903 67 146 0.0 0.9 0.00 0.01 0.01 86 1018.9
20260830211335 67 146 0.0 0.9 0.00 0.01 0.01 86 1019.0
20260830210850 67 146 0.0 0.9 0.00 0.01 0.01 86 1019.1
20260830210345 67 146 0.0 0.9 0.00 0.01 0.01 86 1019.0
20260830205851 67 146 0.0 0.9 0.00 0.01 0.01 85 1019.1
20260830205346 68 146 0.0 0.0 0.00 0.01 0.01 85 1019.0
20260830204839 68 146 0.0 0.9 0.00 0.01 0.01 84 1019.0
20260830204334 68 146 0.9 1.7 0.00 0.01 0.01 84 1019.0
20260830203848 68 146 0.9 1.7 0.00 0.01 0.01 84 1019.2
20260830203347 68 146 0.0 0.9 0.00 0.01 0.01 84 1019.2
20260830202902 68 146 0.0 1.7 0.00 0.01 0.01 84 1019.1
20260830202334 68 146 0.9 1.7 0.00 0.01 0.01 83 1019.2
20260830201848 68 168 0.0 1.7 0.00 0.01 0.01 83 1019.3
20260830201343 68 168 0.9 1.7 0.00 0.01 0.01 82 1019.3
20260830200836 68 168 0.0 1.7 0.00 0.01 0.01 82 1019.3
20260830200333 68 168 0.0 1.7 0.00 0.01 0.01 82 1019.3
20260830195840 69 242 1.7 1.7 0.00 0.01 0.01 82 1019.3
20260830195336 69 195 0.0 1.7 0.00 0.01 0.01 83 1019.4
20260830194850 68 195 0.9 1.7 0.00 0.01 0.01 83 1019.4
20260830194405 68 196 0.0 2.6 0.00 0.01 0.01 83 1019.4
20260830193837 68 196 1.7 4.3 0.00 0.01 0.01 84 1019.4
20260830193411 68 231 2.6 5.2 0.00 0.01 0.01 83 1019.4
20260830192844 68 229 1.7 5.2 0.00 0.01 0.01 83 1019.4
20260830192340 68 181 0.9 2.6 0.01 0.01 0.01 84 1019.3
20260830191835 68 260 0.9 2.6 0.01 0.01 0.01 84 1019.3
20260830191350 68 311 0.9 2.6 0.01 0.01 0.01 85 1019.4
20260830190843 67 10 0.0 2.6 0.01 0.01 0.01 85 1019.6
20260830190359 67 5 0.9 2.6 0.01 0.01 0.01 85 1019.6
20260830185845 67 248 1.7 3.5 0.01 0.01 0.01 86 1019.7
20260830185340 67 219 0.0 4.3 0.01 0.01 0.01 88 1019.7
20260830184835 67 207 0.9 2.6 0.01 0.01 0.01 88 1019.7
20260830184348 67 234 1.7 2.6 0.01 0.01 0.01 87 1019.8
20260830183903 67 234 0.9 2.6 0.01 0.01 0.01 87 1019.9
20260830183337 67 239 0.9 3.5 0.01 0.01 0.01 87 1020.2
20260830182835 67 232 0.9 3.5 0.01 0.01 0.01 87 1020.2
20260830182351 67 263 0.0 1.7 0.00 0.00 0.00 87 1020.2
20260830181844 67 263 0.0 1.7 0.00 0.00 0.00 86 1020.1
20260830181339 67 263 0.0 1.7 0.00 0.00 0.00 86 1020.2
20260830180852 67 273 0.0 4.3 0.00 0.00 0.00 86 1020.1
20260830180347 67 273 1.7 4.3 0.00 0.00 0.00 86 1020.1
20260830175833 67 223 0.9 3.5 0.00 0.00 0.00 86 1020.1
20260830175348 67 179 0.0 1.7 0.00 0.00 0.00 87 1020.1
20260830174841 67 179 0.9 2.6 0.00 0.00 0.00 87 1020.1
20260830174333 67 179 1.7 3.5 0.00 0.00 0.00 87 1020.1
20260830173849 68 179 1.7 3.5 0.00 0.00 0.00 87 1020.1
20260830173344 68 52 0.9 3.5 0.00 0.00 0.00 88 1020.1
20260830172858 67 204 0.0 2.6 0.00 0.00 0.00 88 1020.0
20260830172332 67 204 0.0 2.6 0.00 0.00 0.00 88 1020.1
20260830171847 67 204 0.9 3.5 0.00 0.00 0.00 88 1020.0
20260830171343 67 204 1.7 3.5 0.00 0.00 0.00 88 1020.0
20260830170837 67 261 0.0 5.2 0.00 0.00 0.00 88 1020.1
20260830170333 67 229 1.7 5.2 0.00 0.00 0.00 88 1019.9
20260830165839 67 214 0.9 3.5 0.00 0.00 0.00 88 1019.8
20260830165334 67 250 0.9 3.5 0.00 0.00 0.00 89 1019.8
20260830164833 67 235 1.7 3.5 0.00 0.00 0.00 89 1019.9
20260830164346 66 271 0.9 2.6 0.00 0.00 0.00 87 1020.0
20260830163841 66 217 0.0 2.6 0.00 0.00 0.00 87 1020.1
20260830163335 66 217 0.9 2.6 0.00 0.00 0.00 87 1020.1
20260830162850 66 217 0.9 1.7 0.00 0.00 0.00 86 1020.2
20260830162345 66 217 0.0 1.7 0.00 0.00 0.00 86 1020.2
20260830161838 67 217 0.0 0.9 0.00 0.00 0.00 86 1020.3
20260830161352 67 217 0.0 2.6 0.00 0.00 0.00 86 1020.2
20260830160907 67 217 0.9 4.3 0.00 0.00 0.00 86 1020.3
20260830160401 67 207 1.7 4.3 0.00 0.00 0.00 86 1020.2
20260830155847 67 178 0.9 3.5 0.00 0.00 0.00 86 1020.3
20260830155343 67 231 0.9 3.5 0.00 0.00 0.00 86 1020.2
20260830154858 67 229 1.7 3.5 0.00 0.00 0.00 87 1020.3
20260830154352 66 215 0.0 2.6 0.00 0.00 0.00 86 1020.3
20260830153845 66 216 0.9 3.5 0.00 0.00 0.00 86 1020.3
20260830153339 66 220 0.9 3.5 0.00 0.00 0.00 85 1020.3
20260830152833 66 205 1.7 6.1 0.00 0.00 0.00 84 1020.5
20260830152409 66 252 1.7 6.1 0.00 0.00 0.00 84 1020.5
20260830151842 66 219 1.7 3.5 0.00 0.00 0.00 84 1020.5
20260830151336 66 188 0.9 2.6 0.00 0.00 0.00 83 1020.5
20260830150850 66 198 0.9 2.6 0.00 0.00 0.00 84 1020.4
20260830150345 66 198 0.9 7.8 0.00 0.00 0.00 83 1020.3
20260830145852 66 246 2.6 8.7 0.00 0.00 0.00 84 1020.2
20260830145347 66 234 0.9 2.6 0.00 0.00 0.00 84 1020.1
20260830144841 66 235 1.7 2.6 0.00 0.00 0.00 84 1019.8
20260830144335 66 235 0.9 2.6 0.00 0.00 0.00 84 1019.9
20260830143833 66 236 0.0 1.7 0.00 0.00 0.00 84 1019.7
20260830143347 66 248 0.9 1.7 0.00 0.00 0.00 84 1019.8
20260830142841 66 248 0.0 0.9 0.00 0.00 0.00 84 1019.7
20260830142356 66 248 0.0 0.9 0.00 0.00 0.00 84 1019.7
20260830141849 66 248 0.0 1.7 0.00 0.00 0.00 84 1019.6
20260830141344 66 248 0.9 2.6 0.00 0.00 0.00 84 1019.6
20260830140839 66 248 1.7 3.5 0.00 0.00 0.00 84 1019.6
20260830140335 66 227 1.7 3.5 0.00 0.00 0.00 84 1019.6
20260830135842 66 229 0.0 2.6 0.00 0.00 0.00 84 1019.7
20260830135334 66 229 1.7 2.6 0.00 0.00 0.00 83 1019.6
20260830134849 66 215 0.9 3.5 0.00 0.00 0.00 83 1019.5
20260830134345 66 225 0.9 3.5 0.00 0.00 0.00 83 1019.5
20260830133840 66 173 0.9 2.6 0.00 0.00 0.00 83 1019.5
20260830133356 66 172 0.9 2.6 0.00 0.00 0.00 83 1019.6
20260830132851 66 172 0.9 2.6 0.00 0.00 0.00 83 1019.4
20260830132345 66 169 0.9 2.6 0.00 0.00 0.00 83 1019.4
20260830131839 66 169 0.0 2.6 0.00 0.00 0.00 82 1019.4
20260830131333 66 169 0.9 2.6 0.00 0.00 0.00 82 1019.5
20260830130848 66 169 1.7 3.5 0.00 0.00 0.00 81 1019.6
20260830130342 67 168 0.0 0.9 0.00 0.00 0.00 82 1019.5
20260830125849 67 168 0.0 0.9 0.00 0.00 0.00 81 1019.4
20260830125344 67 168 0.0 0.9 0.00 0.00 0.00 80 1019.3
20260830124841 67 168 0.0 1.7 0.00 0.00 0.00 81 1019.3
20260830124335 67 168 0.0 3.5 0.00 0.00 0.00 80 1019.3
20260830123910 66 192 0.9 3.5 0.00 0.00 0.00 81 1019.2
20260830123343 66 139 0.0 1.7 0.00 0.00 0.00 82 1019.3
20260830122838 66 139 0.0 1.7 0.00 0.00 0.00 81 1019.2
20260830122352 66 139 0.9 1.7 0.00 0.00 0.00 81 1019.3
20260830121845 66 139 0.9 1.7 0.00 0.00 0.00 81 1019.3
20260830121400 66 200 0.9 2.6 0.00 0.00 0.00 81 1019.3
20260830120833 65 198 0.9 2.6 0.00 0.00 0.00 81 1019.3
20260830120348 65 217 0.9 1.7 0.00 0.00 0.00 81 1019.3
20260830115834 65 251 0.0 3.5 0.00 0.00 0.00 81 1019.3
20260830115408 65 251 0.9 3.5 0.00 0.00 0.00 81 1019.3
20260830114903 65 170 0.0 0.0 0.00 0.00 0.00 81 1019.3
20260830114338 64 170 0.0 1.7 0.00 0.00 0.00 81 1019.3
20260830113852 64 170 0.0 1.7 0.00 0.00 0.00 81 1019.4
20260830113407 64 170 0.0 1.7 0.00 0.00 0.00 81 1019.3
20260830112841 64 170 0.9 1.7 0.00 0.00 0.00 81 1019.3
20260830112336 64 170 0.9 1.7 0.00 0.00 0.00 81 1019.5
20260830111849 64 170 0.9 1.7 0.00 0.00 0.00 81 1019.5
20260830111344 64 205 0.0 2.6 0.00 0.00 0.00 81 1019.6
20260830110838 64 205 0.9 2.6 0.00 0.00 0.00 81 1019.7
20260830110334 64 200 0.9 1.7 0.00 0.00 0.00 81 1019.7
20260830105839 64 200 0.0 2.6 0.00 0.00 0.00 80 1019.7
20260830105352 64 200 0.9 2.6 0.00 0.00 0.00 81 1019.6
20260830104847 64 132 0.0 2.6 0.00 0.00 0.00 81 1019.5
20260830104341 64 132 0.0 2.6 0.00 0.00 0.00 81 1019.5
20260830103839 63 132 0.9 1.7 0.00 0.00 0.00 81 1019.5
20260830103333 63 185 0.0 1.7 0.00 0.00 0.00 81 1019.4
20260830102849 63 185 0.9 1.7 0.00 0.00 0.00 81 1019.4
20260830102403 63 215 0.0 2.6 0.00 0.00 0.00 81 1019.4
20260830101837 63 196 0.0 5.2 0.00 0.00 0.00 81 1019.5
20260830101351 63 188 0.9 5.2 0.00 0.00 0.00 81 1019.4
20260830100846 63 185 0.9 2.6 0.00 0.00 0.00 81 1019.5
20260830100341 63 269 0.9 1.7 0.00 0.00 0.00 81 1019.5
20260830095849 63 269 0.9 2.6 0.00 0.00 0.00 81 1019.6
20260830095344 63 269 0.9 2.6 0.00 0.00 0.00 81 1019.6
20260830094839 63 283 0.9 1.7 0.00 0.00 0.00 81 1019.6
20260830094332 63 283 0.0 1.7 0.00 0.00 0.00 81 1019.5
20260830093848 63 283 0.0 2.6 0.00 0.00 0.00 81 1019.5
20260830093402 63 284 0.9 2.6 0.00 0.00 0.00 80 1019.5
20260830092856 63 197 0.9 2.6 0.00 0.00 0.00 80 1019.5
20260830092350 63 214 0.0 1.7 0.00 0.00 0.00 80 1019.5
20260830091846 63 207 0.0 1.7 0.00 0.00 0.00 80 1019.4
20260830091338 63 207 0.9 1.7 0.00 0.00 0.00 80 1019.4
20260830090832 63 212 0.0 1.7 0.00 0.00 0.00 80 1019.5
20260830090347 63 213 0.0 2.6 0.00 0.00 0.00 80 1019.5
20260830085834 63 203 0.0 2.6 0.00 0.00 0.00 80 1019.7
20260830085349 63 215 0.0 2.6 0.00 0.00 0.00 80 1019.6
20260830084843 63 236 0.9 3.5 0.00 0.00 0.00 80 1019.7
20260830084341 63 201 0.9 3.5 0.00 0.00 0.00 80 1019.7
20260830083836 63 179 0.9 4.3 0.00 0.00 0.00 80 1019.8
20260830083350 63 211 1.7 4.3 0.00 0.00 0.00 80 1019.8
20260830082844 63 188 0.9 4.3 0.00 0.00 0.00 79 1019.8
20260830082339 63 177 0.9 2.6 0.00 0.00 0.00 79 1019.9
20260830081854 63 192 0.9 1.7 0.00 0.00 0.00 79 1020.1
20260830081347 63 227 0.0 2.6 0.00 0.00 0.00 79 1020.0
20260830080841 63 227 0.0 2.6 0.00 0.00 0.00 80 1020.0
20260830080335 63 164 0.9 1.7 0.00 0.00 0.00 80 1020.1
20260830075842 63 164 0.9 4.3 0.00 0.00 0.00 80 1020.1
20260830075337 63 164 0.0 4.3 0.00 0.00 0.00 80 1020.1
20260830074853 63 161 0.0 2.6 0.00 0.00 0.00 80 1019.9
20260830074347 63 161 0.9 2.6 0.00 0.00 0.00 80 1020.1
20260830073841 63 221 0.0 1.7 0.00 0.00 0.00 80 1020.1
20260830073336 63 221 0.9 2.6 0.00 0.00 0.00 80 1020.1
20260830072911 63 256 0.0 2.6 0.00 0.00 0.00 79 1020.1
20260830072345 63 173 0.0 2.6 0.00 0.00 0.00 80 1020.1
20260830071838 63 161 0.9 2.6 0.00 0.00 0.00 80 1020.1
20260830071352 62 222 0.9 1.7 0.00 0.00 0.00 81 1020.1
20260830070847 62 222 0.0 0.9 0.00 0.00 0.00 81 1020.1
20260830070402 62 222 0.0 0.9 0.00 0.00 0.00 80 1020.1
20260830065846 62 222 0.0 2.6 0.00 0.00 0.00 80 1020.1
20260830065343 62 222 0.9 2.6 0.00 0.00 0.00 80 1020.1
20260830064840 63 247 0.0 0.9 0.00 0.00 0.00 80 1020.1
20260830064335 63 247 0.0 0.9 0.00 0.00 0.00 80 1020.1
20260830063850 63 247 0.0 0.9 0.00 0.00 0.00 80 1020.2
20260830063405 63 247 0.0 1.7 0.00 0.00 0.00 79 1020.1
20260830062840 63 225 0.9 2.6 0.00 0.00 0.00 79 1020.2
20260830062414 63 252 0.9 2.6 0.00 0.00 0.00 79 1020.2
20260830061908 63 143 0.0 1.7 0.00 0.00 0.00 79 1020.3
20260830061403 64 142 0.0 1.7 0.00 0.00 0.00 79 1020.4
20260830060837 64 142 0.0 1.7 0.00 0.00 0.00 79 1020.5
20260830060333 64 118 0.0 0.9 0.00 0.00 0.00 78 1020.4
20260830055839 64 118 0.0 2.6 0.00 0.00 0.00 78 1020.5
20260830055334 64 118 0.0 2.6 0.00 0.00 0.00 78 1020.5
20260830054848 64 172 0.0 1.7 0.00 0.00 0.00 78 1020.5
20260830054402 64 190 0.0 1.7 0.00 0.00 0.00 78 1020.5
20260830053835 64 184 0.9 2.6 0.00 0.00 0.00 79 1020.7
20260830053349 64 190 0.9 3.5 0.00 0.00 0.00 78 1020.6
20260830052845 64 171 0.9 3.5 0.00 0.00 0.00 78 1020.6
20260830052339 64 169 0.9 2.6 0.00 0.00 0.00 78 1020.6
20260830051912 64 169 0.9 2.6 0.00 0.00 0.00 78 1020.5
20260830051345 64 149 0.9 2.6 0.00 0.00 0.00 78 1020.7
20260830050859 64 149 0.9 2.6 0.00 0.00 0.00 78 1020.9
20260830050334 64 149 0.0 1.7 0.00 0.00 0.00 79 1020.8
20260830045840 64 149 0.0 1.7 0.00 0.00 0.00 78 1020.8
20260830045335 64 149 0.0 1.7 0.00 0.00 0.00 77 1020.8
20260830044848 64 149 0.9 1.7 0.00 0.00 0.00 78 1020.8
20260830044343 65 149 0.9 1.7 0.00 0.00 0.00 79 1020.5
20260830043837 65 149 0.9 1.7 0.00 0.00 0.00 78 1020.6
20260830043412 65 149 0.0 0.9 0.00 0.00 0.00 77 1020.5
20260830042845 65 149 0.0 0.9 0.00 0.00 0.00 77 1020.5
20260830042340 64 149 0.0 1.7 0.00 0.00 0.00 78 1020.5
20260830041838 64 149 0.0 1.7 0.00 0.00 0.00 79 1020.4
20260830041351 65 149 0.0 4.3 0.00 0.00 0.00 80 1020.3
20260830040846 65 149 0.0 4.3 0.00 0.00 0.00 78 1020.3